{"data":{"norad_id":87553,"epoch":"2026-05-23T05:10:29.294976Z","epoch_age_seconds":229086,"freshness":"STALE","line1":"1 87553U          26143.21561684  .00002543  00000+0  82755-3 0  9990","line2":"2 87553  65.6693 324.8158 0684048 155.4913 208.0349 13.54391906613113","mean_motion":13.54391906,"eccentricity":0.0684048,"inclination_deg":65.6693,"raan_deg":324.8158,"arg_perigee_deg":155.4913,"mean_anomaly_deg":208.0349,"bstar":0.00082755,"rev_number":61311,"period_min":106.32077714144,"perigee_km":547.60300125776,"apogee_km":1564.6839386392,"semimajor_km":7434.2804699485,"source":"CELESTRAK","updated_at":"2026-05-25T13:38:11.672154Z"}}